Location: Leeds
(37.2390°N, 113.3580°W)
Time: 03:20:56
(UTC-06:00)

ISS - All Passes

Search period start: 26 March 2017 00:00
Search period end: 05 April 2017 00:00
Orbit: 399 x 409 km, 51.6° (Epoch: 26 March)

Date Brightness Start Highest point End Pass type
(mag) Time Alt. Az. Time Alt. Az. Time Alt. Az.
26 Mar - 04:08:38 10° NNW 04:11:41 34° NE 04:14:44 10° ESE night (unlit)
26 Mar - 05:45:25 10° W 05:48:01 21° SW 05:50:36 10° S visible
26 Mar - 20:47:02 10° SSW 20:49:55 30° SE 20:52:50 10° ENE visible
26 Mar - 22:23:35 10° W 22:26:23 26° NNW 22:29:12 10° NNE visible
27 Mar - 03:16:35 10° NNW 03:19:10 21° NNE 03:21:46 10° E night (unlit)
27 Mar - 04:52:38 10° WNW 04:55:48 44° SW 04:58:56 10° SSE night (unlit)
27 Mar - 19:55:48 10° SSE 19:57:44 15° SE 19:59:41 10° E daylight
27 Mar - 21:30:46 10° WSW 21:33:55 45° NW 21:37:04 10° NE visible
27 Mar - 23:10:17 10° NNW 23:11:03 11° NNW 23:11:49 10° N visible
28 Mar - 02:24:43 10° N 02:26:34 14° NNE 02:28:26 10° ENE night (unlit)
28 Mar - 04:00:10 10° NW 04:03:28 85° NE 04:06:46 10° SE night (unlit)
28 Mar - 20:38:16 10° SW 20:41:30 86° SE 20:44:47 10° NE visible
28 Mar - 22:16:26 10° WNW 22:18:21 15° NNW 22:20:19 10° NNE visible
29 Mar - 01:33:24 10° N 01:33:53 10° NNE 01:34:21 10° NNE night (unlit)
29 Mar - 03:07:53 10° NW 03:11:03 42° NE 03:14:12 10° ESE night (unlit)
29 Mar - 04:45:03 10° W 04:47:16 17° SW 04:49:29 10° S night (unlit)
29 Mar - 19:46:08 10° SSW 19:49:11 39° SE 19:52:15 10° ENE daylight
29 Mar - 21:23:08 10° W 21:25:44 22° NNW 21:28:23 10° NNE visible
30 Mar - 02:15:46 10° NNW 02:18:32 24° NNE 02:21:18 10° E night (unlit)
30 Mar - 03:52:01 10° WNW 03:55:03 34° SW 03:58:03 10° SSE night (unlit)
30 Mar - 18:54:34 10° S 18:56:56 19° SE 18:59:19 10° E daylight
30 Mar - 20:30:10 10° WSW 20:33:12 37° NW 20:36:16 10° NE visible
31 Mar - 01:23:47 10° NNW 01:25:55 16° NNE 01:28:03 10° ENE night (unlit)
31 Mar - 02:59:25 10° NW 03:02:43 75° SW 03:05:59 10° SE night (unlit)
31 Mar - 19:37:30 10° SW 19:40:44 74° NW 19:43:59 10° NE daylight
31 Mar - 21:16:03 10° NW 21:17:41 13° NNW 21:19:19 10° N visible
01 Apr - 00:32:05 10° N 00:33:12 11° NNE 00:34:19 10° NE night (unlit)
01 Apr - 02:07:03 10° NW 02:10:17 52° NE 02:13:30 10° ESE night (unlit)
01 Apr - 03:44:44 10° W 03:46:25 13° SW 03:48:05 10° SSW night (unlit)
01 Apr - 18:45:12 10° SSW 18:48:21 50° SE 18:51:31 10° ENE daylight
01 Apr - 20:22:35 10° WNW 20:25:00 19° NNW 20:27:25 10° NNE visible
02 Apr - 01:14:51 10° NNW 01:17:45 28° NNE 01:20:40 10° E night (unlit)
02 Apr - 02:51:20 10° WNW 02:54:10 27° SW 02:56:59 10° SSE night (unlit)
02 Apr - 17:53:22 10° S 17:56:02 24° SE 17:58:42 10° ENE daylight
02 Apr - 19:29:28 10° W 19:32:24 30° NNW 19:35:20 10° NNE daylight
03 Apr - 00:22:46 10° NNW 00:25:07 18° NNE 00:27:29 10° ENE night (unlit)
03 Apr - 01:58:36 10° WNW 02:01:49 57° SW 02:05:03 10° SE night (unlit)
03 Apr - 17:02:32 10° SSE 17:03:46 12° SE 17:05:02 10° ESE daylight
03 Apr - 18:36:40 10° WSW 18:39:51 57° NW 18:43:04 10° NE daylight
03 Apr - 20:15:40 10° NW 20:16:54 12° NNW 20:18:08 10° N daylight
03 Apr - 23:30:54 10° N 23:32:24 13° NNE 23:33:55 10° NE visible
04 Apr - 01:06:07 10° NW 01:09:23 66° NE 01:12:39 10° ESE night (unlit)
04 Apr - 02:44:48 10° WSW 02:45:26 10° SW 02:46:03 10° SW night (unlit)
04 Apr - 17:44:12 10° SW 17:47:24 66° SE 17:50:38 10° NE daylight
04 Apr - 19:21:57 10° WNW 19:24:09 17° NNW 19:26:20 10° NNE daylight
